Watertown, SD

2:46 AM CST on December 06, 2019 (GMT -0600)
Watertown Municipal

Weather History for KATY - November, 2019

Change the Weather History Date:

Tuesday, November 12, 2019

  Actual Average Record
Temperature  
Mean Temperature 12 °F 32 °F  
Max Temperature 26 °F 41 °F 67 °F (1999)
Min Temperature -1 °F 23 °F -9 °F (1911)
Degree Days  
Heating Degree Days 52    
Month to date heating degree days 482  
Since 1 July heating degree days 1382  
Cooling Degree Days 0    
Month to date cooling degree days 0  
Year to date cooling degree days 466  
Moisture  
Dew Point 10 °F    
Average Humidity 75    
Maximum Humidity 91    
Minimum Humidity 60    
Precipitation  
Precipitation 0.00 in 0.03 in 0.45 in (1993)
Month to date precipitation 0.06 0.36  
Year to date precipitation 31.81 21.15  
Snow  
Snow 0.00 in 0.10 in 1.70 in (1983)
Month to date snowfall 0.6 1.3  
Since 1 July snowfall 2.1 3.0  
Snow Depth 1.00 in    
Sea Level Pressure  
Sea Level Pressure 30.17 in    
Wind  
Wind Speed 12 mph ()    
Max Wind Speed 29 mph    
Max Gust Speed 40 mph    
Visibility 10.0 miles    
Events      
T = Trace of Precipitation, MM = Missing Value Source: Averaged Metar Reports

Daily Weather History Graph

Daily Weather History Graph

Search for Another Location

Airport or City:

Astronomy

Nov. 12, 2019 Rise Set
Actual Time 7:21 AM CST 5:03 PM CST
Civil Twilight 6:50 AM CST 5:34 PM CST
Nautical Twilight 6:14 AM CST 6:09 PM CST
Astronomical Twilight 5:40 AM CST 6:44 PM CST
Moon 5:32 PM CST (11/12) 7:12 AM CST (11/12)
Length of Visible Light 10h 44m
Length of Day
9h 41m
Full, 100% of the Moon is Illuminated
Nov 12
Full
Nov 19
Last Quarter
Nov 26
New
Dec 4
First Quarter
Dec 11
Full

Hourly Weather History & Observations

Time (CST) Temp. Windchill Dew Point Humidity Pressure Visibility Wind Dir Wind Speed Gust Speed Precip Events Conditions
12:53 AM -0.0 °F -9.9 °F -5.1 °F 79% 30.65 in 10.0 mi SSW 4.6 mph - N/A   Clear
3:53 AM 3.0 °F -9.3 °F -2.0 °F 80% 30.57 in 10.0 mi South 6.9 mph - N/A   Clear
4:53 AM 3.9 °F -10.4 °F -0.0 °F 84% 30.53 in 10.0 mi South 9.2 mph - N/A   Clear
5:53 AM 3.9 °F -12.2 °F 1.0 °F 88% 30.49 in 10.0 mi South 11.5 mph - N/A   Clear
6:53 AM 6.1 °F -10.2 °F 1.9 °F 83% 30.46 in 10.0 mi South 12.7 mph - N/A   Clear
7:53 AM 7.0 °F -10.4 °F 3.0 °F 84% 30.41 in 10.0 mi South 15.0 mph - N/A   Clear
8:53 AM 10.0 °F -6.5 °F 5.0 °F 80% 30.37 in 10.0 mi SSE 15.0 mph - N/A   Clear
9:53 AM 12.9 °F -6.1 °F 7.0 °F 77% 30.31 in 10.0 mi South 23.0 mph 29.9 mph N/A   Clear
10:53 AM 18.0 °F -0.2 °F 9.0 °F 68% 30.25 in 10.0 mi South 25.3 mph 36.8 mph N/A   Clear
11:53 AM 19.9 °F 3.5 °F 10.0 °F 65% 30.19 in 10.0 mi SSE 21.9 mph 32.2 mph N/A   Clear
12:53 PM 21.9 °F 5.5 °F 12.0 °F 66% 30.13 in 10.0 mi South 24.2 mph 33.4 mph N/A   Clear
1:53 PM 23.0 °F 6.9 °F 12.9 °F 65% 30.09 in 10.0 mi South 24.2 mph 34.5 mph N/A   Clear
2:53 PM 25.0 °F 10.6 °F 12.9 °F 60% 30.06 in 10.0 mi South 20.7 mph 33.4 mph N/A   Clear
3:53 PM 24.1 °F 9.0 °F 14.0 °F 65% 30.01 in 10.0 mi South 21.9 mph 33.4 mph N/A   Clear
4:53 PM 25.0 °F 11.3 °F 15.1 °F 66% 29.98 in 10.0 mi South 18.4 mph 31.1 mph N/A   Clear
5:53 PM 25.0 °F 12.6 °F 16.0 °F 69% 29.97 in 10.0 mi South 15.0 mph - N/A   Clear
6:53 PM 24.1 °F 11.5 °F 17.1 °F 75% 29.96 in 10.0 mi South 15.0 mph - N/A   Clear
7:53 PM 24.1 °F 12.0 °F 17.1 °F 75% 29.91 in 10.0 mi South 13.8 mph - N/A   Clear
8:53 PM 25.0 °F 13.6 °F 19.0 °F 78% 29.89 in 10.0 mi South 12.7 mph - N/A   Mostly Cloudy
9:53 PM 25.0 °F 13.6 °F 19.0 °F 78% 29.89 in 10.0 mi South 12.7 mph - N/A   Overcast
10:53 PM 25.0 °F 17.1 °F 19.9 °F 81% 29.86 in 10.0 mi South 6.9 mph - N/A   Mostly Cloudy
11:53 PM 26.1 °F 19.4 °F 21.0 °F 81% 29.84 in 10.0 mi South 5.8 mph - N/A   Mostly Cloudy